Galena, AK

11:41 PM AKDT on May 26, 2017 (GMT -0800)
Pitka

Weather History for PAGA - March, 2013

Change the Weather History Date:

Friday, March 8, 2013

  Actual Average Record
Temperature  
Mean Temperature 22 °F -  
Max Temperature 35 °F 12 °F 42 °F (1965)
Min Temperature 10 °F -7 °F -45 °F (1971)
Degree Days  
Heating Degree Days 42    
Moisture  
Dew Point 14 °F    
Average Humidity 64    
Maximum Humidity 88    
Minimum Humidity 46    
Precipitation  
Precipitation 0.00 in - - ()
Sea Level Pressure  
Sea Level Pressure 29.45 in    
Wind  
Wind Speed 7 mph (East)    
Max Wind Speed 15 mph    
Max Gust Speed -    
Visibility 10 miles    
Events      
Averages and records for this station are not official NWS values.
T = Trace of Precipitation, MM = Missing Value Source: NWS Daily Summary

Daily Weather History Graph

Daily Weather History Graph

Search for Another Location

Airport or City:

Trip Planner

Search our weather history database for the weather conditions in past years. The results will help you decide how hot, cold, wet, or windy it might be!

Date:

Astronomy

Mar. 08, 2013 Rise Set
Actual Time 8:10 AM AKST 7:08 PM AKST
Civil Twilight 7:21 AM AKST 7:56 PM AKST
Nautical Twilight 6:24 AM AKST 8:54 PM AKST
Astronomical Twilight 5:24 AM AKST 9:55 PM AKST
Moon 7:00 AM AKST (3/8) 3:24 PM AKST (3/8)
Length of Visible Light 12h 35m
Length of Day
10h 58m
Waning Crescent, 11% of the Moon is Illuminated
Mar 8
Waning Crescent
Mar 11
New
Mar 19
First Quarter
Mar 27
Full
Apr 2
Last Quarter

Hourly Weather History & Observations

Time (AKST) Temp. Windchill Dew Point Humidity Pressure Visibility Wind Dir Wind Speed Gust Speed Precip Events Conditions
12:58 AM 24.1 °F 13.1 °F 12.9 °F 62% 29.37 in 10.0 mi East 11.5 mph - N/A   Clear
1:58 AM 25.0 °F 16.3 °F 12.9 °F 60% 29.35 in 10.0 mi ENE 8.1 mph - N/A   Clear
2:58 AM 23.0 °F 17.0 °F 10.0 °F 58% 29.37 in 10.0 mi WNW 4.6 mph - N/A   Clear
3:58 AM 10.9 °F 2.9 °F 6.1 °F 81% 29.38 in 10.0 mi NW 4.6 mph - N/A   Clear
4:58 AM 10.0 °F 3.6 °F 6.1 °F 84% 29.37 in 10.0 mi North 3.5 mph - N/A   Clear
5:58 AM 10.9 °F 1.4 °F 8.1 °F 88% 29.39 in 10.0 mi NNW 5.8 mph - N/A   Clear
6:58 AM 10.9 °F - 8.1 °F 88% 29.41 in 10.0 mi Calm Calm - N/A   Mostly Cloudy
7:58 AM 10.0 °F 3.6 °F 7.0 °F 87% 29.42 in 10.0 mi East 3.5 mph - N/A   Mostly Cloudy
8:58 AM 16.0 °F - 10.0 °F 77% 29.42 in 10.0 mi Calm Calm - N/A   Mostly Cloudy
9:58 AM 18.0 °F 8.7 °F 12.0 °F 78% 29.42 in 10.0 mi East 6.9 mph - N/A   Overcast
10:58 AM 28.0 °F 18.1 °F 15.1 °F 58% 29.42 in 10.0 mi ESE 11.5 mph - N/A   Overcast
11:58 AM 30.9 °F 27.5 °F 15.1 °F 52% 29.44 in 10.0 mi East 3.5 mph - N/A   Partly Cloudy
12:58 PM 28.9 °F - 16.0 °F 58% 29.45 in 10.0 mi Calm Calm - N/A   Scattered Clouds
1:58 PM 30.9 °F 27.5 °F 17.1 °F 57% 29.46 in 10.0 mi East 3.5 mph - N/A   Overcast
2:58 PM 32.0 °F 23.0 °F 17.1 °F 54% 29.45 in 10.0 mi East 11.5 mph - N/A   Mostly Cloudy
3:58 PM 35.1 °F 28.6 °F 17.1 °F 48% 29.45 in 10.0 mi East 8.1 mph - N/A   Partly Cloudy
4:58 PM 35.1 °F 26.9 °F 16.0 °F 46% 29.46 in 10.0 mi ESE 11.5 mph - N/A   Clear
5:58 PM 34.0 °F 26.6 °F 16.0 °F 48% 29.48 in 10.0 mi East 9.2 mph - N/A   Clear
6:58 PM 30.9 °F 20.2 °F 18.0 °F 59% 29.49 in 10.0 mi East 15.0 mph - N/A   Partly Cloudy
7:58 PM 30.0 °F 22.4 °F 18.0 °F 61% 29.52 in 10.0 mi East 8.1 mph - N/A   Clear
8:58 PM 30.0 °F 23.2 °F 17.1 °F 59% 29.54 in 10.0 mi ESE 6.9 mph - N/A   Overcast
9:58 PM 28.9 °F 21.9 °F 17.1 °F 61% 29.55 in 10.0 mi East 6.9 mph - N/A   Scattered Clouds
10:58 PM 28.9 °F 21.1 °F 17.1 °F 61% 29.57 in 10.0 mi ESE 8.1 mph - N/A   Overcast
11:58 PM 28.0 °F 18.1 °F 16.0 °F 61% 29.58 in 10.0 mi ESE 11.5 mph - N/A   Scattered Clouds